WWW216 ENBR-LKPR

Flight info

Callsign WWW216
Flight time 1h 39m
Altitude 39000
Route TINI2C TINIG GIMRU GODUR Z998 OSKAN M748 HDO GOLOP GOLO5R
Aircraft B736/M-VGDW/C

Departure

Time 2026-05-06 18:27
Airport Bergen Airport, Flesland (ENBR)

Arrival

Time 2026-05-06 20:06
Airport Václav Havel Airport Prague (LKPR)
Time Latitude Longitude Altitude Speed Heading
2026-05-06 17:36 60.30261 5.22991 167 ft 0 kts 290°
2026-05-06 18:15 60.30262 5.22988 167 ft 2 kts 290°
2026-05-06 18:15 60.30261 5.22942 167 ft 4 kts 248°
2026-05-06 18:15 60.30239 5.22920 167 ft 4 kts 194°
2026-05-06 18:16 60.30215 5.22904 167 ft 4 kts 202°
2026-05-06 18:16 60.30182 5.22876 167 ft 7 kts 203°
2026-05-06 18:16 60.30122 5.22824 162 ft 13 kts 203°
2026-05-06 18:16 60.30016 5.22738 152 ft 18 kts 198°
2026-05-06 18:17 60.29924 5.22683 144 ft 10 kts 197°
2026-05-06 18:17 60.29856 5.22637 144 ft 10 kts 207°
2026-05-06 18:17 60.29813 5.22565 148 ft 5 kts 225°
2026-05-06 18:17 60.29776 5.22493 146 ft 8 kts 237°
2026-05-06 18:18 60.29757 5.22385 146 ft 8 kts 260°
2026-05-06 18:18 60.29748 5.22275 145 ft 7 kts 261°
2026-05-06 18:18 60.29746 5.22252 145 ft 0 kts 260°
2026-05-06 18:20 60.29746 5.22251 145 ft 0 kts 260°
2026-05-06 18:20 60.29742 5.22210 145 ft 4 kts 261°
2026-05-06 18:20 60.29734 5.22111 147 ft 8 kts 261°
2026-05-06 18:21 60.29746 5.22011 147 ft 8 kts 323°
2026-05-06 18:21 60.29798 5.21985 148 ft 8 kts 351°
2026-05-06 18:21 60.29849 5.21966 150 ft 7 kts 349°
2026-05-06 18:21 60.29918 5.21944 153 ft 15 kts 351°
2026-05-06 18:22 60.30061 5.21896 159 ft 25 kts 351°
2026-05-06 18:22 60.30224 5.21842 163 ft 23 kts 351°
2026-05-06 18:22 60.30379 5.21789 171 ft 22 kts 351°
2026-05-06 18:22 60.30527 5.21739 176 ft 18 kts 351°
2026-05-06 18:23 60.30625 5.21706 180 ft 5 kts 350°
2026-05-06 18:23 60.30644 5.21691 180 ft 3 kts 330°
2026-05-06 18:23 60.30649 5.21684 180 ft 0 kts 324°
2026-05-06 18:24 60.30653 5.21677 180 ft 4 kts 320°
2026-05-06 18:24 60.30665 5.21622 181 ft 4 kts 277°
2026-05-06 18:24 60.30664 5.21595 181 ft 0 kts 262°
2026-05-06 18:25 60.30664 5.21594 181 ft 0 kts 262°
2026-05-06 18:25 60.30654 5.21478 182 ft 11 kts 255°
2026-05-06 18:25 60.30600 5.21398 182 ft 10 kts 180°
2026-05-06 18:25 60.30588 5.21401 181 ft 0 kts 172°
2026-05-06 18:27 60.30431 5.21451 171 ft 66 kts 171°
2026-05-06 18:27 60.29691 5.21698 150 ft 146 kts 171°
2026-05-06 18:27 60.28550 5.22062 662 ft 169 kts 172°
2026-05-06 18:27 60.27429 5.22422 1888 ft 162 kts 173°
2026-05-06 18:28 60.26256 5.22796 2559 ft 187 kts 173°
2026-05-06 18:28 60.24844 5.23249 2920 ft 224 kts 173°
2026-05-06 18:28 60.23181 5.23795 3348 ft 256 kts 172°
2026-05-06 18:28 60.21396 5.24395 4389 ft 263 kts 172°
2026-05-06 18:29 60.19589 5.25010 5533 ft 265 kts 172°
2026-05-06 18:29 60.17755 5.25634 6639 ft 269 kts 172°
2026-05-06 18:29 60.15891 5.26266 7655 ft 274 kts 172°
2026-05-06 18:29 60.13995 5.26909 8654 ft 280 kts 173°
2026-05-06 18:30 60.12106 5.27998 9627 ft 289 kts 153°
2026-05-06 18:30 60.10580 5.30687 10509 ft 301 kts 127°
2026-05-06 18:30 60.09679 5.34640 10837 ft 328 kts 103°
2026-05-06 18:30 60.09221 5.39286 11085 ft 355 kts 99°
2026-05-06 18:31 60.08820 5.44364 11310 ft 381 kts 98°
2026-05-06 18:31 60.08418 5.49721 11870 ft 394 kts 98°
2026-05-06 18:31 60.08001 5.55165 12613 ft 401 kts 98°
2026-05-06 18:31 60.07560 5.60717 13375 ft 407 kts 99°
2026-05-06 18:32 60.07098 5.66365 14061 ft 414 kts 99°
2026-05-06 18:32 60.06617 5.72103 14675 ft 421 kts 99°
2026-05-06 18:32 60.06120 5.77942 15274 ft 428 kts 100°
2026-05-06 18:32 60.05612 5.83859 15870 ft 435 kts 100°
2026-05-06 18:33 60.05098 5.89799 16441 ft 442 kts 100°
2026-05-06 18:33 60.04527 5.95976 16988 ft 449 kts 105°
2026-05-06 18:33 60.03322 6.01576 17021 ft 444 kts 128°
2026-05-06 18:33 60.01185 6.05948 17613 ft 437 kts 148°
2026-05-06 18:34 59.98627 6.09118 18351 ft 433 kts 157°
2026-05-06 18:34 59.95987 6.12053 18921 ft 436 kts 158°
2026-05-06 18:34 59.93313 6.14996 19478 ft 441 kts 158°
2026-05-06 18:34 59.90623 6.17965 20056 ft 444 kts 158°
2026-05-06 18:35 59.87924 6.20965 20660 ft 448 kts 158°
2026-05-06 18:35 59.85197 6.24017 21236 ft 451 kts 158°
2026-05-06 18:35 59.82468 6.27082 21781 ft 455 kts 158°
2026-05-06 18:35 59.79687 6.30206 22022 ft 466 kts 158°
2026-05-06 18:36 59.76830 6.33410 22272 ft 475 kts 157°
2026-05-06 18:36 59.73943 6.36652 22744 ft 478 kts 157°
2026-05-06 18:36 59.71043 6.39911 23253 ft 481 kts 158°
2026-05-06 18:36 59.68135 6.43174 23695 ft 484 kts 158°
2026-05-06 18:37 59.65193 6.46466 24092 ft 486 kts 158°
2026-05-06 18:37 59.63240 6.48646 24374 ft 487 kts 158°
2026-05-06 18:37 59.59299 6.53039 24992 ft 487 kts 158°
2026-05-06 18:37 59.56341 6.56326 25421 ft 488 kts 158°
2026-05-06 18:38 59.53377 6.59610 25794 ft 489 kts 158°
2026-05-06 18:38 59.50402 6.62899 26140 ft 490 kts 158°
2026-05-06 18:38 59.47434 6.66175 26524 ft 489 kts 158°
2026-05-06 18:38 59.44470 6.69441 27002 ft 486 kts 158°
2026-05-06 18:39 59.41539 6.72668 27564 ft 482 kts 158°
2026-05-06 18:39 59.38620 6.75873 28130 ft 479 kts 159°
2026-05-06 18:39 59.35756 6.79009 28658 ft 477 kts 159°
2026-05-06 18:40 59.29979 6.85312 29716 ft 473 kts 159°
2026-05-06 18:40 59.27111 6.88431 30220 ft 471 kts 159°
2026-05-06 18:40 59.24252 6.91535 30576 ft 471 kts 159°
2026-05-06 18:40 59.21378 6.94643 30824 ft 473 kts 159°
2026-05-06 18:41 59.18494 6.97756 31092 ft 475 kts 159°
2026-05-06 18:41 59.15596 7.00881 31433 ft 475 kts 159°
2026-05-06 18:41 59.12709 7.03992 31793 ft 475 kts 158°
2026-05-06 18:41 59.09815 7.07105 32119 ft 475 kts 158°
2026-05-06 18:42 59.06919 7.10214 32419 ft 476 kts 158°
2026-05-06 18:42 59.04023 7.13316 32740 ft 475 kts 158°
2026-05-06 18:42 59.01129 7.16412 33072 ft 475 kts 158°
2026-05-06 18:42 58.98232 7.19504 33381 ft 475 kts 158°
2026-05-06 18:43 58.95339 7.22584 33701 ft 475 kts 158°
2026-05-06 18:43 58.92446 7.25660 34030 ft 474 kts 158°
2026-05-06 18:43 58.89556 7.28726 34275 ft 474 kts 158°
2026-05-06 18:43 58.86664 7.31788 34513 ft 474 kts 158°
2026-05-06 18:44 58.83773 7.34843 34743 ft 474 kts 158°
2026-05-06 18:44 58.80882 7.37891 34978 ft 474 kts 158°
2026-05-06 18:44 58.77988 7.40937 35213 ft 474 kts 157°
2026-05-06 18:44 58.75084 7.43987 35365 ft 476 kts 157°
2026-05-06 18:45 58.72168 7.47043 35471 ft 478 kts 157°
2026-05-06 18:45 58.69246 7.50099 35583 ft 479 kts 157°
2026-05-06 18:45 58.66314 7.53161 35718 ft 480 kts 157°
2026-05-06 18:46 58.60433 7.59289 35999 ft 481 kts 157°
2026-05-06 18:46 58.57494 7.62343 36145 ft 480 kts 157°
2026-05-06 18:46 58.54561 7.65386 36273 ft 479 kts 157°
2026-05-06 18:46 58.51629 7.68420 36416 ft 479 kts 157°
2026-05-06 18:47 58.48730 7.71414 36554 ft 479 kts 157°
2026-05-06 18:47 58.45757 7.74478 36708 ft 479 kts 157°
2026-05-06 18:47 58.42823 7.77495 36853 ft 480 kts 156°
2026-05-06 18:47 58.39917 7.80479 36992 ft 480 kts 156°
2026-05-06 18:48 58.36979 7.83488 37145 ft 480 kts 156°
2026-05-06 18:48 58.34036 7.86499 37291 ft 480 kts 156°
2026-05-06 18:48 58.31089 7.89507 37440 ft 481 kts 156°
2026-05-06 18:48 58.28141 7.92511 37592 ft 481 kts 156°
2026-05-06 18:49 58.25196 7.95506 37742 ft 481 kts 156°
2026-05-06 18:49 58.22244 7.98504 37904 ft 481 kts 156°
2026-05-06 18:49 58.19294 8.01493 38061 ft 481 kts 156°
2026-05-06 18:49 58.16337 8.04482 38223 ft 481 kts 156°
2026-05-06 18:50 58.13382 8.07465 38383 ft 481 kts 156°
2026-05-06 18:50 58.10421 8.10447 38544 ft 481 kts 156°
2026-05-06 18:50 58.07468 8.13417 38687 ft 481 kts 156°
2026-05-06 18:51 58.02515 8.18385 38898 ft 481 kts 156°
2026-05-06 18:51 57.96593 8.24302 38964 ft 483 kts 156°
2026-05-06 18:52 57.90652 8.30218 38969 ft 483 kts 156°
2026-05-06 18:52 57.84765 8.36059 38969 ft 481 kts 156°
2026-05-06 18:53 57.78847 8.41909 38974 ft 481 kts 156°
2026-05-06 18:53 57.72937 8.47727 38973 ft 480 kts 156°
2026-05-06 18:54 57.67024 8.53528 38977 ft 480 kts 156°
2026-05-06 18:54 57.61120 8.59298 38979 ft 480 kts 156°
2026-05-06 18:55 57.55209 8.65054 38980 ft 479 kts 156°
2026-05-06 18:55 57.49291 8.70794 38980 ft 479 kts 156°
2026-05-06 18:56 57.43378 8.76507 38983 ft 479 kts 156°
2026-05-06 18:56 57.37476 8.82191 38981 ft 478 kts 157°
2026-05-06 18:57 57.31574 8.87854 38981 ft 478 kts 157°
2026-05-06 18:57 57.25669 8.93500 38980 ft 477 kts 157°
2026-05-06 18:58 57.19772 8.99118 38978 ft 477 kts 157°
2026-05-06 18:58 57.13888 9.04702 38980 ft 476 kts 157°
2026-05-06 18:59 57.08012 9.10260 38976 ft 476 kts 157°
2026-05-06 18:59 57.02129 9.15803 38970 ft 475 kts 157°
2026-05-06 19:00 56.96248 9.21326 38969 ft 474 kts 157°
2026-05-06 19:00 56.90372 9.26824 38970 ft 474 kts 157°
2026-05-06 19:01 56.84497 9.32301 38971 ft 473 kts 157°
2026-05-06 19:01 56.78629 9.37753 38963 ft 473 kts 157°
2026-05-06 19:02 56.72771 9.43176 38961 ft 472 kts 157°
2026-05-06 19:02 56.66910 9.48583 38967 ft 472 kts 157°
2026-05-06 19:03 56.61095 9.53928 38960 ft 471 kts 157°
2026-05-06 19:03 56.55242 9.59290 38959 ft 471 kts 157°
2026-05-06 19:04 56.49398 9.64625 38953 ft 470 kts 158°
2026-05-06 19:04 56.43552 9.69944 38950 ft 470 kts 158°
2026-05-06 19:05 56.37708 9.75242 38956 ft 470 kts 158°
2026-05-06 19:05 56.31852 9.80532 38949 ft 470 kts 158°
2026-05-06 19:06 56.26008 9.85794 38947 ft 470 kts 158°
2026-05-06 19:06 56.20150 9.91050 38949 ft 471 kts 158°
2026-05-06 19:07 56.14292 9.96288 38948 ft 471 kts 158°
2026-05-06 19:07 56.08435 10.01507 38948 ft 471 kts 158°
2026-05-06 19:08 56.02570 10.06716 38952 ft 471 kts 158°
2026-05-06 19:08 55.96736 10.11880 38945 ft 471 kts 158°
2026-05-06 19:09 55.90871 10.17054 38949 ft 470 kts 158°
2026-05-06 19:09 55.84995 10.22220 38947 ft 470 kts 158°
2026-05-06 19:10 55.79122 10.27365 38955 ft 470 kts 158°
2026-05-06 19:10 55.73247 10.32495 38959 ft 470 kts 158°
2026-05-06 19:11 55.67376 10.37604 38960 ft 470 kts 158°
2026-05-06 19:11 55.61496 10.42703 38965 ft 470 kts 158°
2026-05-06 19:12 55.55617 10.47786 38965 ft 470 kts 158°
2026-05-06 19:12 55.49738 10.52850 38965 ft 470 kts 158°
2026-05-06 19:13 55.43861 10.57897 38966 ft 470 kts 158°
2026-05-06 19:13 55.37973 10.62936 38956 ft 470 kts 158°
2026-05-06 19:14 55.32089 10.67954 38954 ft 470 kts 158°
2026-05-06 19:14 55.26202 10.72959 38959 ft 470 kts 158°
2026-05-06 19:15 55.20314 10.77949 38961 ft 470 kts 158°
2026-05-06 19:15 55.14465 10.82888 38957 ft 470 kts 158°
2026-05-06 19:16 55.08570 10.87850 38953 ft 470 kts 158°
2026-05-06 19:16 55.02683 10.92789 38955 ft 469 kts 158°
2026-05-06 19:17 54.96797 10.97712 38958 ft 469 kts 158°
2026-05-06 19:17 54.90907 11.02621 38957 ft 469 kts 158°
2026-05-06 19:18 54.85018 11.07514 38956 ft 469 kts 158°
2026-05-06 19:18 54.79134 11.12387 38951 ft 469 kts 158°
2026-05-06 19:19 54.73248 11.17246 38949 ft 468 kts 158°
2026-05-06 19:19 54.67402 11.22233 38947 ft 469 kts 156°
2026-05-06 19:20 54.61658 11.27607 38947 ft 469 kts 155°
2026-05-06 19:20 54.55934 11.32999 38941 ft 469 kts 155°
2026-05-06 19:21 54.50198 11.38320 38937 ft 468 kts 155°
2026-05-06 19:21 54.44460 11.43582 38931 ft 467 kts 156°
2026-05-06 19:22 54.38724 11.48814 38926 ft 467 kts 156°
2026-05-06 19:22 54.32988 11.54030 38928 ft 466 kts 156°
2026-05-06 19:23 54.27257 11.59228 38921 ft 466 kts 156°
2026-05-06 19:23 54.21527 11.64408 38920 ft 466 kts 156°
2026-05-06 19:24 54.15798 11.69572 38915 ft 465 kts 156°
2026-05-06 19:24 54.10067 11.74721 38908 ft 465 kts 156°
2026-05-06 19:25 54.04333 11.79857 38910 ft 466 kts 156°
2026-05-06 19:25 53.98596 11.84978 38906 ft 466 kts 156°
2026-05-06 19:26 53.92859 11.90085 38907 ft 466 kts 156°
2026-05-06 19:26 53.87155 11.95146 38908 ft 465 kts 156°
2026-05-06 19:27 53.81417 12.00222 38905 ft 465 kts 156°
2026-05-06 19:27 53.75676 12.05284 38906 ft 465 kts 156°
2026-05-06 19:28 53.69929 12.10336 38898 ft 465 kts 156°
2026-05-06 19:28 53.64180 12.15373 38895 ft 465 kts 156°
2026-05-06 19:29 53.58439 12.20390 38893 ft 465 kts 156°
2026-05-06 19:29 53.52701 12.25387 38895 ft 464 kts 156°
2026-05-06 19:30 53.46964 12.30368 38881 ft 464 kts 156°
2026-05-06 19:30 53.41227 12.35334 38877 ft 464 kts 156°
2026-05-06 19:31 53.35493 12.40283 38878 ft 463 kts 156°
2026-05-06 19:31 53.26898 12.47671 38869 ft 463 kts 157°
2026-05-06 19:32 53.21202 12.52550 38865 ft 463 kts 157°
2026-05-06 19:32 53.15471 12.57443 38865 ft 462 kts 157°
2026-05-06 19:33 53.09746 12.62317 38862 ft 462 kts 157°
2026-05-06 19:33 53.04023 12.67174 38860 ft 462 kts 157°
2026-05-06 19:34 52.98302 12.72015 38851 ft 461 kts 157°
2026-05-06 19:34 52.92586 12.76837 38852 ft 461 kts 157°
2026-05-06 19:35 52.86876 12.81641 38850 ft 460 kts 157°
2026-05-06 19:35 52.81156 12.86437 38849 ft 460 kts 157°
2026-05-06 19:36 52.76414 12.90403 38846 ft 460 kts 157°
2026-05-06 19:36 52.70706 12.95165 38841 ft 459 kts 157°
2026-05-06 19:37 52.64999 12.99911 38836 ft 460 kts 157°
2026-05-06 19:37 52.59285 13.04649 38833 ft 460 kts 157°
2026-05-06 19:38 52.53561 13.09381 38834 ft 460 kts 157°
2026-05-06 19:38 52.47834 13.14102 38843 ft 461 kts 158°
2026-05-06 19:39 52.42104 13.18812 38840 ft 461 kts 158°
2026-05-06 19:39 52.36369 13.23513 38845 ft 461 kts 158°
2026-05-06 19:40 52.30689 13.28156 38844 ft 456 kts 158°
2026-05-06 19:40 52.25047 13.32757 38843 ft 450 kts 158°
2026-05-06 19:41 52.19466 13.37290 38846 ft 448 kts 158°
2026-05-06 19:41 52.13894 13.41803 38836 ft 446 kts 158°
2026-05-06 19:42 52.08359 13.46273 38828 ft 446 kts 158°
2026-05-06 19:42 52.02797 13.50753 38773 ft 449 kts 158°
2026-05-06 19:43 51.99952 13.53036 38211 ft 458 kts 158°
2026-05-06 19:43 51.97095 13.55329 37637 ft 457 kts 158°
2026-05-06 19:43 51.94291 13.57580 37050 ft 453 kts 158°
2026-05-06 19:43 51.91450 13.59859 36463 ft 449 kts 158°
2026-05-06 19:44 51.88653 13.62098 35914 ft 448 kts 158°
2026-05-06 19:44 51.85859 13.64328 35348 ft 448 kts 159°
2026-05-06 19:44 51.83061 13.66558 34786 ft 448 kts 159°
2026-05-06 19:44 51.80270 13.68780 34243 ft 446 kts 159°
2026-05-06 19:45 51.77487 13.70993 33678 ft 445 kts 159°
2026-05-06 19:45 51.74715 13.73194 33046 ft 444 kts 159°
2026-05-06 19:45 51.71944 13.75390 32426 ft 443 kts 159°
2026-05-06 19:45 51.69177 13.77580 31818 ft 442 kts 159°
2026-05-06 19:46 51.66413 13.79764 31235 ft 445 kts 159°
2026-05-06 19:46 51.63611 13.81972 30659 ft 450 kts 159°
2026-05-06 19:46 51.60798 13.84188 30081 ft 451 kts 159°
2026-05-06 19:46 51.57979 13.86408 29464 ft 450 kts 158°
2026-05-06 19:47 51.55168 13.88620 28807 ft 450 kts 158°
2026-05-06 19:47 51.52347 13.90837 28168 ft 451 kts 158°
2026-05-06 19:47 51.49527 13.93048 27549 ft 452 kts 158°
2026-05-06 19:47 51.46695 13.95266 26928 ft 453 kts 158°
2026-05-06 19:48 51.43856 13.97485 26343 ft 455 kts 158°
2026-05-06 19:48 51.41003 13.99712 25763 ft 457 kts 158°
2026-05-06 19:48 51.38129 14.01953 25196 ft 459 kts 158°
2026-05-06 19:48 51.35288 14.04165 24644 ft 460 kts 158°
2026-05-06 19:49 51.32412 14.06403 24095 ft 459 kts 158°
2026-05-06 19:49 51.29568 14.08615 23547 ft 451 kts 158°
2026-05-06 19:49 51.26779 14.10783 22936 ft 440 kts 158°
2026-05-06 19:49 51.24050 14.12900 22317 ft 435 kts 158°
2026-05-06 19:50 51.21331 14.15001 21704 ft 433 kts 158°
2026-05-06 19:50 51.18624 14.17090 21107 ft 432 kts 158°
2026-05-06 19:50 51.15924 14.19171 20517 ft 430 kts 158°
2026-05-06 19:50 51.13243 14.21236 19938 ft 427 kts 157°
2026-05-06 19:51 51.10575 14.23288 19373 ft 425 kts 157°
2026-05-06 19:51 51.07924 14.25326 18976 ft 420 kts 157°
2026-05-06 19:51 51.05297 14.27341 18865 ft 420 kts 157°
2026-05-06 19:51 51.02665 14.29359 18802 ft 419 kts 157°
2026-05-06 19:52 51.00044 14.31366 18787 ft 418 kts 157°
2026-05-06 19:52 50.97417 14.33375 18785 ft 419 kts 157°
2026-05-06 19:52 50.94792 14.35378 18780 ft 419 kts 157°
2026-05-06 19:52 50.92121 14.37185 18780 ft 417 kts 164°
2026-05-06 19:53 50.89331 14.38377 18421 ft 416 kts 169°
2026-05-06 19:53 50.86519 14.39388 17929 ft 411 kts 170°
2026-05-06 19:53 50.83744 14.40360 17298 ft 407 kts 170°
2026-05-06 19:53 50.80984 14.41337 16629 ft 404 kts 170°
2026-05-06 19:54 50.78252 14.42322 15984 ft 401 kts 169°
2026-05-06 19:54 50.75544 14.43313 15358 ft 399 kts 169°
2026-05-06 19:54 50.72849 14.44307 14738 ft 397 kts 169°
2026-05-06 19:54 50.70171 14.45298 14141 ft 394 kts 169°
2026-05-06 19:55 50.67501 14.46285 13532 ft 392 kts 169°
2026-05-06 19:55 50.64862 14.47259 13007 ft 387 kts 169°
2026-05-06 19:55 50.62247 14.48223 12791 ft 385 kts 169°
2026-05-06 19:55 50.59647 14.49165 12810 ft 383 kts 171°
2026-05-06 19:56 50.57000 14.49371 12820 ft 380 kts 189°
2026-05-06 19:56 50.54468 14.48261 12489 ft 379 kts 206°
2026-05-06 19:56 50.52311 14.45971 11976 ft 366 kts 221°
2026-05-06 19:56 50.50496 14.43338 11332 ft 347 kts 224°
2026-05-06 19:57 50.48812 14.40750 10709 ft 332 kts 225°
2026-05-06 19:57 50.47204 14.38253 10139 ft 319 kts 225°
2026-05-06 19:57 50.45676 14.35873 9886 ft 298 kts 225°
2026-05-06 19:57 50.44250 14.33653 9655 ft 280 kts 225°
2026-05-06 19:58 50.42899 14.31548 9385 ft 268 kts 225°
2026-05-06 19:58 50.41590 14.29507 9120 ft 264 kts 225°
2026-05-06 19:58 50.40281 14.27469 8886 ft 267 kts 225°
2026-05-06 19:58 50.38965 14.25420 8759 ft 268 kts 225°
2026-05-06 19:59 50.37638 14.23354 8457 ft 266 kts 225°
2026-05-06 19:59 50.36364 14.21369 8087 ft 250 kts 225°
2026-05-06 19:59 50.35156 14.19487 7670 ft 243 kts 225°
2026-05-06 19:59 50.33966 14.17630 7170 ft 240 kts 225°
2026-05-06 20:00 50.32788 14.15790 6693 ft 239 kts 225°
2026-05-06 20:00 50.31610 14.13953 6202 ft 238 kts 225°
2026-05-06 20:00 50.30465 14.12164 5682 ft 229 kts 225°
2026-05-06 20:00 50.29353 14.10431 5164 ft 222 kts 225°
2026-05-06 20:01 50.28264 14.08744 4671 ft 219 kts 225°
2026-05-06 20:01 50.27190 14.07097 4188 ft 214 kts 225°
2026-05-06 20:01 50.26123 14.05473 4072 ft 216 kts 225°
2026-05-06 20:01 50.25044 14.03839 4023 ft 216 kts 224°
2026-05-06 20:02 50.23760 14.02708 3994 ft 213 kts 192°
2026-05-06 20:02 50.22301 14.02915 4012 ft 215 kts 160°
2026-05-06 20:02 50.20970 14.03996 3990 ft 217 kts 140°
2026-05-06 20:02 50.19962 14.05677 3992 ft 207 kts 130°
2026-05-06 20:03 50.19081 14.07394 3863 ft 199 kts 128°
2026-05-06 20:03 50.18255 14.09095 3616 ft 195 kts 127°
2026-05-06 20:03 50.17451 14.10762 3373 ft 188 kts 126°
2026-05-06 20:03 50.16678 14.12363 3128 ft 181 kts 126°
2026-05-06 20:04 50.15942 14.13885 2886 ft 168 kts 125°
2026-05-06 20:04 50.15275 14.15264 2725 ft 149 kts 125°
2026-05-06 20:04 50.14675 14.16507 2493 ft 139 kts 124°
2026-05-06 20:04 50.14098 14.17704 2311 ft 139 kts 124°
2026-05-06 20:05 50.13519 14.18903 2136 ft 138 kts 124°
2026-05-06 20:05 50.12945 14.20092 1923 ft 137 kts 124°
2026-05-06 20:05 50.12386 14.21252 1748 ft 135 kts 124°
2026-05-06 20:05 50.11819 14.22426 1567 ft 133 kts 125°
2026-05-06 20:06 50.11266 14.23567 1398 ft 134 kts 125°
2026-05-06 20:06 50.10710 14.24733 1212 ft 131 kts 126°
2026-05-06 20:06 50.10204 14.25772 1187 ft 103 kts 127°
2026-05-06 20:06 50.09943 14.26306 1202 ft 37 kts 124°
2026-05-06 20:07 50.09873 14.26611 1213 ft 29 kts 82°
2026-05-06 20:07 50.09901 14.26910 1208 ft 27 kts 82°
2026-05-06 20:07 50.09918 14.27093 1206 ft 0 kts 82°
2026-05-06 20:08 50.09919 14.27100 1206 ft 5 kts 76°
2026-05-06 20:08 50.09957 14.27106 1205 ft 8 kts 304°
2026-05-06 20:09 50.09991 14.27030 1204 ft 10 kts 308°
2026-05-06 20:09 50.10040 14.26931 1201 ft 13 kts 306°
2026-05-06 20:09 50.10104 14.26799 1198 ft 17 kts 307°
2026-05-06 20:09 50.10184 14.26633 1196 ft 20 kts 306°
2026-05-06 20:10 50.10272 14.26450 1192 ft 20 kts 307°
2026-05-06 20:10 50.10295 14.26402 1191 ft 0 kts 307°
2026-05-06 20:10 50.10305 14.26382 1191 ft 12 kts 307°
2026-05-06 20:11 50.10394 14.26198 1187 ft 21 kts 307°
2026-05-06 20:11 50.10479 14.26019 1184 ft 18 kts 306°
2026-05-06 20:11 50.10510 14.25974 1183 ft 2 kts 20°
2026-05-06 20:11 50.10520 14.26008 1182 ft 8 kts 73°
2026-05-06 20:12 50.10535 14.26126 1175 ft 14 kts 79°
2026-05-06 20:12 50.10529 14.26255 1173 ft 11 kts 112°
2026-05-06 20:12 50.10486 14.26357 1175 ft 11 kts 125°
2026-05-06 20:12 50.10456 14.26426 1174 ft 3 kts 123°
2026-05-06 20:13 50.10461 14.26454 1176 ft 3 kts 36°
2026-05-06 20:13 50.10479 14.26471 1175 ft 3 kts 33°
2026-05-06 20:13 50.10486 14.26478 1176 ft 0 kts 34°